Regional Weather Roundup
Issued by NWS

Home | Current Version | Previous Version | Graphics & Text | Print | Product List | Glossary On
Versions: 1 2 3 4 5 6 7 8 9 10 11 12 13 14 15 16 17 18 19 20 21 22 23 24 25 26 27 28 29 30 31 32 33 34 35 36 37 38 39 40 41 42 43 44 45 46 47 48 49 50
000
ASUS43 KOAX 300410
RWRNE

WEATHER ROUNDUP FOR NEBRASKA
NATIONAL WEATHER SERVICE OMAHA NE
1100 PM CDT THU SEP 29 2016

NOTES: SATELLITE DATA IS BEING USED TO AUGMENT CLOUD COVER ABOVE
       12000 FEET.
       "FAIR" INDICATES FEW OR NO CLOUDS BELOW 12,000 FEET WITH NO
       SIGNIFICANT WEATHER AND/OR OBSTRUCTIONS TO VISIBILITY.

  * THESE STATIONS DO NOT REPORT WEATHER SUCH AS RAIN...SNOW OR FOG.

NEZ001>004-019>022-054>056-300500-
NEBRASKA PANHANDLE

CITY           SKY/WX    TMP DP  RH WIND       PRES   REMARKS
SCOTTSBLUFF    CLOUDY    61  42  49 SE17      30.24S
ALLIANCE       CLEAR     57  41  55 SE13      30.25S
CHADRON        CLEAR     66  40  38 S16G32    30.18S
KIMBALL        CLOUDY    59  44  57 SE13      30.27S
SIDNEY         CLEAR     59  42  53 SE14      30.28S
$$

NEZ057>060-069>072-079>082-300500-
SOUTHWEST NEBRASKA

CITY           SKY/WX    TMP DP  RH WIND       PRES   REMARKS
NORTH PLATTE   CLEAR     48  40  73 E7        30.31S
IMPERIAL       CLEAR     55  41  59 SE14      30.30R
LEXINGTON      CLEAR     51  44  75 SE6       30.33S
MCCOOK         CLEAR     52  43  71 SE8       30.31S
OGALLALA       CLEAR     58  41  54 SE7       30.29F
$$

NEZ005>010-023>029-035>040-094-300500-
NORTH CENTRAL NEBRASKA

CITY           SKY/WX    TMP DP  RH WIND       PRES   REMARKS
VALENTINE      CLEAR     55  40  56 S12       30.29S
AINSWORTH      CLEAR     54  44  70 SE9       30.31S
BROKEN BOW     CLEAR     45  41  86 CALM      30.33S
O`NEILL        CLEAR     53  44  72 SE3       30.35R
ORD            CLEAR     44  40  85 CALM      30.33S
THEDFORD       CLEAR     51  41  68 SE7       30.32S
$$

NEZ041-046>049-061>064-073>077-083>087-300500-
SOUTH CENTRAL NEBRASKA

CITY           SKY/WX    TMP DP  RH WIND       PRES   REMARKS
GRAND ISLAND   CLEAR     52  45  77 SE6       30.35R
AURORA         CLEAR     49  46  90 E3        30.35S
HASTINGS       CLEAR     56  45  66 SE8       30.35S
HEBRON         CLEAR     48  45  91 CALM      30.34S
HOLDREGE       CLEAR     44  39  82 SE5       30.34S
KEARNEY *      CLEAR     48  41  76 E3        30.34S
YORK           PTCLDY    50  46  87 E5        30.35S
$$

NEZ011>018-030>034-042>045-300500-
NORTHEAST NEBRASKA

CITY           SKY/WX    TMP DP  RH WIND       PRES   REMARKS
NORFOLK        CLEAR     48  43  82 CALM      30.35S
ALBION         CLEAR     47  44  88 CALM      30.35S
BLAIR          CLEAR     56  47  71 NE5       30.34S
FREMONT        CLEAR     52  47  84 CALM      30.35S
TEKAMAH        CLEAR     49  46  90 NW5       30.35R
WAYNE          CLEAR     44  42  95 CALM      30.36S
$$

NEZ050>053-065>068-078-088>093-300500-
SOUTHEAST NEBRASKA

CITY           SKY/WX    TMP DP  RH WIND       PRES   REMARKS
LINCOLN        CLEAR     51  47  86 N6        30.36R
OMAHA EPPLEY   CLEAR     53  46  77 NW6       30.34S
BEATRICE       CLEAR     51  47  86 CALM      30.34S
FALLS CITY     CLEAR     56  48  74 N3        30.32S
NEBRASKA CITY  CLEAR     57  42  57 CALM      30.33S
PLATTSMOUTH    CLEAR     57  43  59 CALM      30.34S
$$

NEZ044-045-051>053-067-300500-
OMAHA AREA

CITY           SKY/WX    TMP DP  RH WIND       PRES   REMARKS
OMAHA EPPLEY   CLEAR     53  46  77 NW6       30.34S
BLAIR          CLEAR     56  47  71 NE5       30.34S
FREMONT        CLEAR     52  47  84 CALM      30.35S
MILLARD        CLEAR     54  50  85 CALM      30.34S
OFFUTT AFB     CLEAR     49  47  96 NE1       30.33S
PLATTSMOUTH    CLEAR     57  43  59 CALM      30.34S
WAHOO          FAIR      49  47  91 N3        30.34S
$$




USA.gov is the U.S. government's official web portal to all federal, state and local government web resources and services.